EA3CTN-13 Weather Reports


time (UTC)temp
F
wind
direction
speed
knots
gust
knots
rain 1hr
in
rain 24hr
in
rain mn
in
humidity
%
barometer
mb
20260507171722 72 0.0 0.0 0.00 0.00 0.00 47 1012.9
20260507170922 72 0.0 0.0 0.00 0.00 0.00 47 1012.8
20260507170122 73 0.0 0.0 0.00 0.00 0.00 46 1012.7
20260507165322 74 0.0 0.0 0.00 0.00 0.00 44 1012.6
20260507164522 75 0.0 0.0 0.00 0.00 0.00 42 1012.6
20260507163722 79 0.0 0.0 0.00 0.00 0.00 39 1012.4
20260507162922 76 0.0 0.0 0.00 0.00 0.00 41 1012.3
20260507162122 74 0.0 0.0 0.00 0.00 0.00 44 1012.5
20260507161322 74 0.0 0.0 0.00 0.00 0.00 43 1012.4
20260507160522 73 0.0 0.0 0.00 0.00 0.00 45 1012.5
20260507155721 74 0.0 0.0 0.00 0.00 0.00 43 1012.5
20260507154922 73 0.0 0.0 0.00 0.00 0.00 45 1012.5
20260507154122 72 0.0 0.0 0.00 0.00 0.00 46 1012.8
20260507153321 71 0.0 0.0 0.00 0.00 0.00 48 1013.0
20260507152521 71 0.0 0.0 0.00 0.00 0.00 47 1013.1
20260507151721 72 0.0 0.0 0.00 0.00 0.00 46 1013.1
20260507150921 72 0.0 0.0 0.00 0.00 0.00 45 1013.1
20260507150122 72 0.0 0.0 0.00 0.00 0.00 45 1012.9
20260507145321 72 0.0 0.0 0.00 0.00 0.00 45 1013.1
20260507144521 72 0.0 0.0 0.00 0.00 0.00 45 1013.1
20260507143721 71 0.0 0.0 0.00 0.00 0.00 45 1013.1
20260507142922 71 0.0 0.0 0.00 0.00 0.00 45 1013.1
20260507142121 70 0.0 0.0 0.00 0.00 0.00 46 1013.0
20260507141322 70 0.0 0.0 0.00 0.00 0.00 45 1013.2
20260507140521 70 0.0 0.0 0.00 0.00 0.00 46 1013.4
20260507135722 69 0.0 0.0 0.00 0.00 0.00 47 1013.3
20260507134921 70 0.0 0.0 0.00 0.00 0.00 47 1013.4
20260507134121 69 0.0 0.0 0.00 0.00 0.00 47 1013.7
20260507133321 70 0.0 0.0 0.00 0.00 0.00 45 1013.8
20260507132521 69 0.0 0.0 0.00 0.00 0.00 46 1013.8
20260507131721 70 0.0 0.0 0.00 0.00 0.00 46 1013.9
20260507130921 69 0.0 0.0 0.00 0.00 0.00 47 1013.9
20260507130121 70 0.0 0.0 0.00 0.00 0.00 46 1014.0
20260507125321 70 0.0 0.0 0.00 0.00 0.00 47 1014.1
20260507124521 70 0.0 0.0 0.00 0.00 0.00 47 1014.2
20260507123722 70 0.0 0.0 0.00 0.00 0.00 48 1014.3
20260507122921 70 0.0 0.0 0.00 0.00 0.00 48 1014.3
20260507122121 70 0.0 0.0 0.00 0.00 0.00 48 1014.4
20260507121321 70 0.0 0.0 0.00 0.00 0.00 49 1014.4
20260507120521 70 0.0 0.0 0.00 0.00 0.00 48 1014.6
20260507115721 70 0.0 0.0 0.00 0.00 0.00 48 1014.5
20260507114922 70 0.0 0.0 0.00 0.00 0.00 48 1014.7
20260507114121 70 0.0 0.0 0.00 0.00 0.00 48 1014.6
20260507113321 70 0.0 0.0 0.00 0.00 0.00 47 1014.5
20260507112521 70 0.0 0.0 0.00 0.00 0.00 48 1014.6
20260507111721 69 0.0 0.0 0.00 0.00 0.00 49 1014.5
20260507110921 69 0.0 0.0 0.00 0.00 0.00 49 1014.6
20260507110121 70 0.0 0.0 0.00 0.00 0.00 49 1014.8
20260507105321 69 0.0 0.0 0.00 0.00 0.00 50 1014.9
20260507104521 69 0.0 0.0 0.00 0.00 0.00 49 1014.8
20260507103721 69 0.0 0.0 0.00 0.00 0.00 50 1014.8
20260507102921 69 0.0 0.0 0.00 0.00 0.00 49 1015.0
20260507102121 69 0.0 0.0 0.00 0.00 0.00 49 1015.1
20260507101321 70 0.0 0.0 0.00 0.00 0.00 49 1015.1
20260507100521 70 0.0 0.0 0.00 0.00 0.00 49 1015.2
20260507095721 69 0.0 0.0 0.00 0.00 0.00 48 1015.2
20260507094921 69 0.0 0.0 0.00 0.00 0.00 49 1015.1
20260507094121 67 0.0 0.0 0.00 0.00 0.00 53 1015.2
20260507093321 68 0.0 0.0 0.00 0.00 0.00 53 1015.2
20260507092521 68 0.0 0.0 0.00 0.00 0.00 54 1015.2
20260507091721 67 0.0 0.0 0.00 0.00 0.00 54 1015.2
20260507090921 67 0.0 0.0 0.00 0.00 0.00 55 1015.2
20260507090121 67 0.0 0.0 0.00 0.00 0.00 55 1015.1
20260507085321 67 0.0 0.0 0.00 0.00 0.00 56 1014.9
20260507084521 67 0.0 0.0 0.00 0.00 0.00 55 1014.9
20260507083721 68 0.0 0.0 0.00 0.00 0.00 54 1015.0
20260507082921 67 0.0 0.0 0.00 0.00 0.00 56 1015.0
20260507082121 67 0.0 0.0 0.00 0.00 0.00 57 1015.0
20260507081321 67 0.0 0.0 0.00 0.00 0.00 58 1015.0
20260506220521 68 0.0 0.0 0.00 0.00 0.00 52 1014.1
20260506215721 69 0.0 0.0 0.00 0.00 0.00 52 1014.1
20260506214921 69 0.0 0.0 0.00 0.00 0.00 52 1014.1
20260506214121 69 0.0 0.0 0.00 0.00 0.00 52 1014.0
20260506213321 69 0.0 0.0 0.00 0.00 0.00 52 1014.1
20260506212521 69 0.0 0.0 0.00 0.00 0.00 52 1014.1
20260506211721 69 0.0 0.0 0.00 0.00 0.00 52 1014.1
20260506210921 69 0.0 0.0 0.00 0.00 0.00 51 1014.0
20260506210121 69 0.0 0.0 0.00 0.00 0.00 51 1014.1
20260506205321 69 0.0 0.0 0.00 0.00 0.00 50 1014.0
20260506204521 69 0.0 0.0 0.00 0.00 0.00 50 1013.9
20260506203721 69 0.0 0.0 0.00 0.00 0.00 49 1013.7
20260506202921 69 0.0 0.0 0.00 0.00 0.00 48 1013.7
20260506202121 70 0.0 0.0 0.00 0.00 0.00 47 1013.6
20260506201321 70 0.0 0.0 0.00 0.00 0.00 46 1013.3
20260506200521 69 0.0 0.0 0.00 0.00 0.00 46 1013.2
20260506195721 70 0.0 0.0 0.00 0.00 0.00 46 1013.2
20260506194921 70 0.0 0.0 0.00 0.00 0.00 45 1013.0
20260506194121 70 0.0 0.0 0.00 0.00 0.00 43 1012.9
20260506193321 71 0.0 0.0 0.00 0.00 0.00 43 1012.7
20260506192521 70 0.0 0.0 0.00 0.00 0.00 43 1012.6
20260506191721 71 0.0 0.0 0.00 0.00 0.00 42 1012.5
20260506190920 71 0.0 0.0 0.00 0.00 0.00 42 1012.5
20260506190121 71 0.0 0.0 0.00 0.00 0.00 42 1012.3
20260506185321 71 0.0 0.0 0.00 0.00 0.00 42 1012.3
20260506184521 72 0.0 0.0 0.00 0.00 0.00 41 1012.2
20260506183721 72 0.0 0.0 0.00 0.00 0.00 42 1012.1
20260506182921 72 0.0 0.0 0.00 0.00 0.00 42 1011.9
20260506182121 72 0.0 0.0 0.00 0.00 0.00 41 1011.9
20260506181321 73 0.0 0.0 0.00 0.00 0.00 39 1011.8
20260506180521 73 0.0 0.0 0.00 0.00 0.00 38 1011.6
20260506175720 73 0.0 0.0 0.00 0.00 0.00 37 1011.7
20260506174922 74 0.0 0.0 0.00 0.00 0.00 37 1011.5
20260506174120 75 0.0 0.0 0.00 0.00 0.00 36 1011.4
20260506173321 74 0.0 0.0 0.00 0.00 0.00 37 1011.4
20260506172521 75 0.0 0.0 0.00 0.00 0.00 35 1011.1